Comic Archive

# Comic Title Post Date
1 the beginning 26th Aug 2009, 10:00 PM
2 copyrights 26th Aug 2009, 10:00 PM
3 homeless 26th Aug 2009, 10:00 PM
4 a man who never stops drawing 26th Aug 2009, 10:00 PM
5 love 27th Aug 2009, 10:00 PM
6 don't mention the cats 28th Aug 2009, 10:00 AM
7 king of hugs 28th Aug 2009, 10:00 PM
8 faceless man 29th Aug 2009, 10:00 AM
9 syndrome club 29th Aug 2009, 10:00 PM
10 shovel rain 30th Aug 2009, 10:00 AM
11 fucking crickets 30th Aug 2009, 10:00 PM
12 i heard you like dicks 31st Aug 2009, 10:00 AM
13 linux nerd's nightmare 31st Aug 2009, 10:00 PM
14 linux nerd's unending nightmare 31st Aug 2009, 10:00 PM
15 we're driving you out 1st Sep 2009, 10:00 AM
16 star wars jokes 1st Sep 2009, 10:00 PM
17 hiding from myself 2nd Sep 2009, 10:00 AM
18 searching for myself 2nd Sep 2009, 10:00 PM
19 i feel unneeded 3rd Sep 2009, 10:00 AM
20 good name for a band 3rd Sep 2009, 10:00 PM
21 band 3rd Sep 2009, 10:00 PM
22 valley 4th Sep 2009, 10:00 AM
23 guinea pigs 4th Sep 2009, 10:00 PM
24 bonus comic 4th Sep 2009, 10:00 PM
25 the lamest joke 5th Sep 2009, 10:00 PM
26 april fool's 5th Sep 2009, 10:00 PM
27 uncontrollable shaking 6th Sep 2009, 10:00 PM
28 funny box 7th Sep 2009, 10:00 AM
29 saddest men alive 7th Sep 2009, 10:00 PM
30 i feel so cliche 8th Sep 2009, 10:00 AM
31 paint comix 8th Sep 2009, 10:00 PM
32 action e-coli: the movie: the game 9th Sep 2009, 10:00 AM
33 touch the sky 9th Sep 2009, 10:00 PM
34 grandmaster chyo 10th Sep 2009, 10:00 AM
35 suicide 10th Sep 2009, 10:00 PM
36 inspiration 11th Sep 2009, 10:00 AM
37 decisions 11th Sep 2009, 10:00 AM
38 dos and don'ts 1 11th Sep 2009, 10:00 PM
39 dos and don'ts 2 12th Sep 2009, 10:00 AM
40 dos and don'ts 3 12th Sep 2009, 10:00 PM
41 dos and don'ts 4 13th Sep 2009, 10:00 AM
42 dos and don'ts 5 13th Sep 2009, 10:00 PM
43 dos and don'ts 6 14th Sep 2009, 10:00 AM
44 dos and don'ts 7 14th Sep 2009, 10:00 PM
45 dos and don'ts 8 15th Sep 2009, 10:00 AM
46 gust appearance 15th Sep 2009, 10:00 PM
47 the point 16th Sep 2009, 10:00 AM
48 the point 2 16th Sep 2009, 10:00 AM
49 killin' hands 16th Sep 2009, 10:00 PM
50 hmmm 17th Sep 2009, 10:00 AM
51 zombies 1 17th Sep 2009, 10:00 PM
52 zombies 2 18th Sep 2009, 10:00 AM
53 suicide hotline 18th Sep 2009, 10:00 PM
54 wwwwwh avatar 19th Sep 2009, 10:00 AM
55 GUEST STRIP - turn that frown upside down 19th Sep 2009, 10:00 PM
56 zombies 3 20th Sep 2009, 10:00 AM
57 run train run 21st Sep 2009, 10:00 AM
58 shoot for the moon 22nd Sep 2009, 10:00 PM
59 goodness gracious great balls of fire 23rd Sep 2009, 10:00 AM
60 don't step there 23rd Sep 2009, 10:00 PM
61 the end 25th Oct 2009, 9:23 AM
62 happy halloween 31st Oct 2009, 2:25 PM
63 mrenh 28th Nov 2009, 9:00 PM
64 a dollar 30th Nov 2009, 11:44 AM
65 directions 30th Nov 2009, 12:48 PM
66 two guys watch a porno 21st Apr 2010, 1:43 PM
67 will cure cancer for food 18th May 2010, 11:57 AM
68 whoosh 18th May 2010, 5:00 PM
69 Willpower 27th Aug 2012, 1:22 AM
70 Temporary 27th Aug 2012, 1:41 AM
71 A Jerk 27th Aug 2012, 1:51 AM
72 Modern Adventurer 27th Aug 2012, 10:00 PM
73 From Yourself 28th Aug 2012, 6:00 PM
74 Adam the Emotionally Mild-Mannered 29th Aug 2012, 6:00 PM
75 Not Really Feeling It 30th Aug 2012, 6:00 PM
76 Wave of Ambiguity 31st Aug 2012, 6:00 PM
77 Uninspired 1st Sep 2012, 6:00 PM
78 The Sad 2nd Sep 2012, 6:00 PM
79 Renaissance 3rd Sep 2012, 6:00 PM
80 Depression 4th Sep 2012, 6:00 PM
81 Evolution 5th Sep 2012, 6:00 PM
82 Entitlement 6th Sep 2012, 6:00 PM
83 Employment 7th Sep 2012, 6:00 PM
84 Made Up 8th Sep 2012, 6:00 PM
85 Commitment 28th Mar 2013, 7:32 PM